Погода в Барретусе

Бразилия     20°33′02″S   48°34′30″W
темп.,
°C
ветер,
м/с
пор.,
м/с
влажн.,
%
обл.,
%
осадки,
мм/ч
давл.,
гПа
погр.,
м
6 марта, сб
сб600:00+21сз2395100 0.7 101272
03:00+20с2396100 0.7 1010100
06:00+20с2397100 0.1 1010109
09:00+23сз368893 0.2 1013608
12:00+23сз4889100 1.1 1012660
15:00+24сз368199 1.1 1010656
18:00+24з238585 0.5 1009147
21:00+21зюз229593 3.6 101236
7 марта, вс
вс700:00+20сз229693 1.2 101249
03:00+21ссз249997 2.1 1011178
06:00+20ссв239899 0.3 1011113
09:00+23с2389100 0.7 1013380
12:00+23с2591100 1.7 1013410
15:00+24сз3688100 5.7 1011734
18:00+22зсз2392100 1.4 1011106
21:00+21ссв1295100 1.4 101227
8 марта, пн
пн800:00+20с2298100 0.0 101351
03:00+19с2296100 0.0 101148
06:00+19ссв129699 0.0 101231
09:00+23с238683 0.0 1014412
12:00+26с227338 0.7 1012860
15:00+27сз227125 3.9 1010982
18:00+25сз128129 0.6 100928
21:00+22ю229014 1.6 101123
9 марта, вт
вт900:00+20св11952 0.6 101123
03:00+20с119513 0.6 101023
06:00+19в11962 0.0 101023
09:00+23ссв22865 0.0 1012388
12:00+26зсз237528 2.1 1011828
15:00+27з247124 5.0 10081094
18:00+25зюз228412 1.6 100747
21:00+21юз00916 2.4 100923
10 марта, ср
ср1000:00+20св11950 0.3 101023
03:00+20св12970 0.3 100824
06:00+19с12971 0.0 100925
09:00+24ссз23851 0.0 1011419
12:00+28сз346524 0.2 10091276
15:00+29зсз346031 0.9 10071598
18:00+25с12780 0.4 100736
21:00+21св22880 0.5 100927